When you browse on this site, cookies collect data to enhance your experience and personalize the content and advertising you see.
Visit our Privacy Policy to learn more. By continuing to use the site, you agree to this use of cookies and data.
  • In Hungary
  • List of Countries
  • For 7 days
  • Water Temperature
  • Satellite Maps
  • Weather Map
  • News
  • Weather Widgets
  • user-avatar
    Login

    Hourly Weather Cattolica

    Today, 16 January, Wednesday

    Time Temperature Precipitation Wind Pressure Humidity
    00:00 +5°C° 0 mm 4 mps 764 mmHg 54%
    01:00 +5°C° 0 mm 4 mps 764 mmHg 57%
    02:00 +5°C° 0 mm 4 mps 764 mmHg 57%
    03:00 +5°C° 0 mm 5 mps 764 mmHg 57%
    04:00 +5°C° 0 mm 5 mps 764 mmHg 57%
    05:00 +5°C° 0 mm 5 mps 764 mmHg 54%
    06:00 +5°C° 0 mm 5 mps 764 mmHg 51%
    07:00 +4°C° 0 mm 6 mps 764 mmHg 48%
    08:00 +5°C° 0 mm 6 mps 764 mmHg 47%
    09:00 +7°C° 0 mm 6 mps 764 mmHg 46%
    10:00 +8°C° 0 mm 6 mps 765 mmHg 45%
    11:00 +10°C° 0 mm 6 mps 765 mmHg 46%
    12:00 +12°C° 0 mm 5 mps 764 mmHg 46%
    13:00 +13°C° 0 mm 5 mps 764 mmHg 47%
    14:00 +13°C° 0 mm 5 mps 764 mmHg 53%
    15:00 +12°C° 0 mm 4 mps 764 mmHg 58%
    16:00 +12°C° 0 mm 4 mps 764 mmHg 64%
    17:00 +11°C° 0 mm 4 mps 764 mmHg 70%
    18:00 +10°C° 0 mm 3 mps 763 mmHg 76%
    19:00 +9°C° 0 mm 3 mps 763 mmHg 82%
    20:00 +8°C° 0 mm 3 mps 763 mmHg 82%
    21:00 +8°C° 0 mm 3 mps 764 mmHg 82%
    22:00 +7°C° 0 mm 4 mps 764 mmHg 83%
    23:00 +7°C° 0 mm 4 mps 764 mmHg 82%

    Tomorrow, 17 January, Thursday

    Time Temperature Precipitation Wind Pressure Humidity
    00:00 +7°C° 0 mm 4 mps 763 mmHg 82%
    01:00 +6°C° 0 mm 4 mps 763 mmHg 81%
    02:00 +6°C° 0 mm 5 mps 763 mmHg 80%
    03:00 +6°C° 0 mm 5 mps 762 mmHg 80%
    04:00 +6°C° 0 mm 5 mps 762 mmHg 79%
    05:00 +6°C° 0 mm 5 mps 762 mmHg 79%
    06:00 +6°C° 0 mm 5 mps 762 mmHg 80%
    07:00 +6°C° 0 mm 5 mps 761 mmHg 80%
    08:00 +7°C° 0 mm 5 mps 761 mmHg 77%
    09:00 +9°C° 0 mm 5 mps 761 mmHg 74%
    10:00 +10°C° 0 mm 5 mps 761 mmHg 70%
    11:00 +10°C° 0 mm 6 mps 760 mmHg 70%
    12:00 +11°C° 0 mm 6 mps 760 mmHg 69%
    13:00 +11°C° 0 mm 6 mps 760 mmHg 69%
    14:00 +11°C° 0 mm 6 mps 759 mmHg 70%
    15:00 +11°C° 0 mm 6 mps 759 mmHg 71%
    16:00 +10°C° 0 mm 6 mps 759 mmHg 72%
    17:00 +10°C° 0 mm 6 mps 758 mmHg 76%
    18:00 +9°C° 0 mm 5 mps 758 mmHg 79%
    19:00 +8°C° 0 mm 5 mps 758 mmHg 83%
    20:00 +8°C° 0 mm 5 mps 758 mmHg 82%
    21:00 +8°C° 0 mm 6 mps 758 mmHg 80%
    22:00 +9°C° 0 mm 6 mps 758 mmHg 79%
    23:00 +8°C° 0 mm 5 mps 758 mmHg 79%

    Day after tomorrow, 18 January, Friday

    Time Temperature Precipitation Wind Pressure Humidity
    00:00 +8°C° 0 mm 5 mps 758 mmHg 79%
    01:00 +8°C° 0 mm 5 mps 758 mmHg 80%
    02:00 +8°C° 0 mm 4 mps 758 mmHg 81%
    03:00 +8°C° 0 mm 4 mps 758 mmHg 82%
    04:00 +9°C° 0 mm 3 mps 757 mmHg 84%
    05:00 +8°C° 0 mm 2 mps 758 mmHg 85%
    06:00 +8°C° 0 mm 2 mps 758 mmHg 87%
    07:00 +9°C° 0 mm 1 mps 758 mmHg 88%
    08:00 +10°C° 0 mm 1 mps 758 mmHg 85%
    09:00 +11°C° 0 mm 1 mps 759 mmHg 83%
    10:00 +11°C° 0 mm 1 mps 759 mmHg 80%
    11:00 +12°C° 0 mm 1 mps 759 mmHg 79%
    12:00 +12°C° 0 mm 2 mps 760 mmHg 79%
    13:00 +12°C° 0 mm 2 mps 760 mmHg 78%
    14:00 +12°C° 0.3 mm 2 mps 760 mmHg 82%
    15:00 +12°C° 0.3 mm 2 mps 759 mmHg 86%
    16:00 +10°C° 0.3 mm 3 mps 759 mmHg 90%
    17:00 +10°C° 1.1 mm 3 mps 759 mmHg 91%
    18:00 +10°C° 1.1 mm 3 mps 760 mmHg 92%
    19:00 +9°C° 1.1 mm 3 mps 760 mmHg 94%
    20:00 +9°C° 0.6 mm 2 mps 760 mmHg 93%
    21:00 +9°C° 0.6 mm 2 mps 760 mmHg 92%
    22:00 +8°C° 0.6 mm 2 mps 760 mmHg 91%
    23:00 +8°C° 0.1 mm 2 mps 760 mmHg 90%

    19 January, Saturday

    Time Temperature Precipitation Wind Pressure Humidity
    00:00 +7°C° 0.1 mm 2 mps 760 mmHg 89%
    01:00 +7°C° 0.1 mm 3 mps 760 mmHg 88%
    02:00 +7°C° 0 mm 3 mps 760 mmHg 88%
    03:00 +7°C° 0 mm 3 mps 759 mmHg 88%
    04:00 +5°C° 0 mm 3 mps 759 mmHg 88%
    05:00 +7°C° 0 mm 3 mps 759 mmHg 88%
    06:00 +7°C° 0 mm 3 mps 759 mmHg 87%
    07:00 +7°C° 0 mm 3 mps 759 mmHg 87%
    08:00 +8°C° 0 mm 3 mps 759 mmHg 84%
    09:00 +8°C° 0 mm 3 mps 759 mmHg 81%
    10:00 +9°C° 0 mm 3 mps 759 mmHg 78%
    11:00 +8°C° 0 mm 4 mps 759 mmHg 75%
    12:00 +10°C° 0 mm 4 mps 759 mmHg 72%
    13:00 +10°C° 0 mm 4 mps 759 mmHg 69%
    14:00 +10°C° 0 mm 4 mps 759 mmHg 73%
    15:00 +8°C° 0 mm 4 mps 758 mmHg 76%
    16:00 +7°C° 0 mm 5 mps 758 mmHg 79%
    17:00 +7°C° 0.1 mm 4 mps 758 mmHg 82%
    18:00 +6°C° 0.1 mm 4 mps 758 mmHg 84%
    19:00 +7°C° 0.1 mm 3 mps 759 mmHg 87%
    20:00 +5°C° 0 mm 3 mps 759 mmHg 88%
    21:00 +5°C° 0 mm 3 mps 759 mmHg 89%
    22:00 +5°C° 0 mm 3 mps 759 mmHg 89%
    23:00 +5°C° 0 mm 2 mps 759 mmHg 90%

    20 January, Sunday

    Time Temperature Precipitation Wind Pressure Humidity
    00:00 +5°C° 0 mm 2 mps 759 mmHg 90%
    01:00 +5°C° 0 mm 2 mps 759 mmHg 90%
    02:00 +5°C° 0 mm 2 mps 759 mmHg 89%
    03:00 +5°C° 0 mm 2 mps 759 mmHg 89%
    04:00 +5°C° 0 mm 2 mps 759 mmHg 89%
    05:00 +4°C° 0 mm 2 mps 759 mmHg 88%
    06:00 +4°C° 0 mm 2 mps 759 mmHg 88%
    07:00 +5°C° 0 mm 1 mps 760 mmHg 88%
    08:00 +6°C° 0 mm 1 mps 760 mmHg 84%
    09:00 +7°C° 0 mm 1 mps 760 mmHg 80%
    10:00 +8°C° 0 mm 1 mps 761 mmHg 76%
    11:00 +9°C° 0 mm 1 mps 761 mmHg 74%
    12:00 +10°C° 0 mm 1 mps 760 mmHg 72%
    13:00 +11°C° 0 mm 1 mps 760 mmHg 69%
    14:00 +9°C° 0 mm 2 mps 760 mmHg 72%
    15:00 +9°C° 0 mm 2 mps 760 mmHg 75%
    16:00 +9°C° 0 mm 2 mps 760 mmHg 78%
    17:00 +8°C° 0 mm 2 mps 761 mmHg 80%
    18:00 +9°C° 0 mm 1 mps 761 mmHg 83%
    19:00 +8°C° 0 mm 1 mps 761 mmHg 85%
    20:00 +8°C° 0 mm 1 mps 762 mmHg 86%
    21:00 +8°C° 0 mm 1 mps 762 mmHg 86%
    22:00 +8°C° 0 mm 1 mps 762 mmHg 87%
    23:00 +8°C° 0.1 mm 1 mps 762 mmHg 87%

    21 January, Monday

    Time Temperature Precipitation Wind Pressure Humidity
    00:00 +8°C° 0.1 mm 1 mps 762 mmHg 88%
    01:00 +7°C° 0.1 mm 2 mps 762 mmHg 89%
    02:00 +7°C° 0.1 mm 2 mps 762 mmHg 87%
    03:00 +7°C° 0.1 mm 3 mps 762 mmHg 84%
    04:00 +6°C° 0.1 mm 4 mps 762 mmHg 82%
    05:00 +6°C° 0 mm 4 mps 762 mmHg 82%
    06:00 +6°C° 0 mm 4 mps 762 mmHg 81%
    07:00 +7°C° 0 mm 5 mps 762 mmHg 81%
    08:00 +7°C° 0.1 mm 5 mps 763 mmHg 79%
    09:00 +7°C° 0.1 mm 5 mps 763 mmHg 78%
    10:00 +7°C° 0.1 mm 5 mps 763 mmHg 77%
    11:00 +7°C° 0.2 mm 5 mps 763 mmHg 75%
    12:00 +8°C° 0.2 mm 5 mps 763 mmHg 73%
    13:00 +8°C° 0.2 mm 6 mps 763 mmHg 71%
    14:00 +8°C° 0.1 mm 6 mps 763 mmHg 72%
    15:00 +8°C° 0.1 mm 6 mps 763 mmHg 72%
    16:00 +7°C° 0.1 mm 6 mps 763 mmHg 73%
    17:00 +7°C° 0.1 mm 6 mps 763 mmHg 75%
    18:00 +7°C° 0.1 mm 6 mps 763 mmHg 77%
    19:00 +7°C° 0.1 mm 6 mps 763 mmHg 79%
    20:00 +7°C° 0.1 mm 6 mps 763 mmHg 79%
    21:00 +7°C° 0.1 mm 6 mps 763 mmHg 79%
    22:00 +7°C° 0.1 mm 6 mps 763 mmHg 78%
    23:00 +7°C° 0.1 mm 6 mps 763 mmHg 79%
    Show more